RH
9 8 8 8 8 7 7 6 5 4 4 4 4 5 5 5 5 4 4 5 5 6 5 6 8 9 9 9 10 10 9 9 11 19 37 31 38 40 40 34 39 29 68 54 61
10 8 8 8 7 7 7 6 5 5 4 4 3 3 3 4 4 4 4 5 6 6 6 7 10 12 13 12 11 11 16 12 11 13 24 39 29 51 45 40 41 32 59 51 54
9 10 10 9 9 8 8 7 6 5 4 4 4 4 3 3 4 4 4 6 7 6 6 8 15 15 15 14 14 15 15 13 12 11 13 32 32 56 47 48 46 32 80 59 50
11 9 10 11 12 12 10 8 7 6 6 5 5 5 5 5 4 5 6 7 7 7 7 8 16 18 17 16 18 18 18 17 15 15 13 17 25 64 58 60 68 59 74 59 62
14 14 12 11 11 12 13 14 9 6 7 7 6 6 6 6 6 7 7 7 6 6 7 7 11 19 21 22 19 20 19 18 16 13 14 18 30 73 87 67 70 64 62 63 56
13 18 13 11 10 11 12 13 14 10 6 8 10 9 8 6 7 7 7 7 6 6 6 6 7 15 21 25 23 22 20 19 18 15 12 27 43 70 80 76 67 55 58 54 46
10 10 10 14 10 6 10 12 13 13 12 9 10 12 12 9 9 8 8 7 7 7 8 8 6 10 21 25 24 23 22 20 17 16 15 33 82 76 67 67 48 57 59 61 46
33 19 10 9 15 13 5 8 12 12 11 12 12 12 13 12 8 6 6 6 6 6 11 11 10 8 14 26 27 26 23 18 17 16 19 19 87 54 62 53 51 63 56 60 49
32 38 37 18 9 13 16 11 8 10 11 9 8 7 9 11 9 6 5 5 4 6 11 11 10 11 9 21 24 26 30 20 18 16 20 18 30 30 56 72 59 69 59 50 55
32 35 39 39 28 25 17 13 16 14 11 12 11 11 11 13 13 8 6 7 8 7 10 12 13 11 10 15 22 23 23 19 18 18 18 35 28 41 56 68 44 60 43 39 61
36 34 34 36 35 33 29 28 24 15 16 15 16 16 14 12 13 11 8 8 9 10 13 15 15 16 16 12 13 18 22 19 18 16 16 30 52 39 62 50 43 56 36 68 80
30 30 31 32 30 30 30 27 27 22 22 19 16 15 18 13 11 12 13 12 12 13 14 14 16 19 17 17 18 20 18 17 16 17 16 19 39 54 60 58 50 50 35 46 62
27 25 24 24 22 21 21 23 22 20 22 20 20 17 12 12 11 10 12 14 15 14 15 17 18 18 20 21 21 19 17 16 17 18 18 23 53 71 48 42 42 33 33 33 52
24 25 24 22 21 20 19 18 17 18 16 17 20 22 13 14 13 13 13 14 15 18 20 20 20 20 20 20 19 19 18 17 17 18 64 35 55 76 49 35 36 23 27 46 76
17 18 19 19 19 19 18 17 18 19 18 15 17 25 18 15 15 16 17 15 18 20 21 19 18 17 16 17 17 19 19 18 18 17 18 68 68 67 54 33 26 22 37 69 51
21 17 16 16 16 17 17 17 16 16 14 14 15 22 24 18 16 18 19 20 21 22 21 19 15 13 13 13 13 14 15 15 16 17 60 79 60 63 77 27 20 20 43 46 31
23 22 23 22 16 15 15 15 15 14 12 10 12 15 21 23 22 20 23 23 22 22 21 20 18 14 12 12 12 13 14 27 49 80 68 79 44 73 38 33 30 30 66 37 29
32 25 23 21 21 20 22 21 15 14 13 10 9 12 13 15 19 20 20 20 19 19 20 17 14 12 12 11 13 16 19 53 69 62 67 70 70 86 39 42 37 65 75 49 70
47 30 21 21 21 21 15 12 22 25 20 15 8 10 12 12 12 13 13 14 15 15 15 14 13 11 10 9 12 15 15 34 76 71 59 61 70 40 53 48 44 61 52 60 68
58 52 26 21 15 15 16 12 8 19 30 29 19 11 10 11 11 11 11 14 15 13 13 12 13 12 10 10 12 13 33 29 54 69 76 69 52 86 61 60 68 55 48 54 61
48 58 49 27 21 17 14 12 8 7 7 22 32 28 18 13 12 11 12 13 15 14 13 13 13 47 11 11 18 17 15 21 60 78 69 76 87 69 64 61 64 80 79 72 63
37 48 48 45 28 26 21 13 7 7 4 3 7 22 32 30 19 15 13 13 17 15 15 16 17 17 37 48 16 19 27 66 72 83 85 74 79 68 65 66 84 71 52 52 48
23 33 41 46 39 31 27 24 17 10 9 8 4 4 9 20 30 22 18 16 15 18 20 19 17 30 34 24 21 17 23 28 73 63 94 77 92 87 58 58 54 57 48 46 37
7 13 28 40 49 41 32 28 22 18 13 11 10 9 6 6 18 27 22 20 21 23 25 24 20 25 62 70 69 46 41 51 72 77 86 96 76 68 73 60 63 53 47 42 36
8 6 9 19 40 48 45 33 27 21 19 16 13 12 11 7 9 19 26 25 26 30 26 24 26 27 30 63 59 68 76 80 82 80 88 93 96 84 59 63 72 66 56 38 36
9 10 7 7 16 34 43 40 32 26 21 18 16 12 13 11 8 16 22 26 36 34 36 27 27 25 29 29 40 58 61 85 83 81 89 80 73 67 73 78 72 79 46 35 36
8 12 11 8 7 10 22 35 33 28 27 22 19 16 13 11 11 9 13 18 24 31 38 37 38 25 39 61 27 38 54 66 74 77 78 68 97 78 83 73 52 40 29 29 40
Wind_Speed
16 16 16 15 14 14 14 13 12 11 10 11 12 12 11 10 9 7 4 3 4 6 8 7 5 5 5 4 3 4 7 7 5 5 8 11 13 16 14 10 11 11 13 16 17
17 16 16 15 15 15 15 15 14 13 11 10 11 12 12 11 10 8 6 4 4 5 5 4 5 5 5 3 3 3 6 4 5 4 6 8 11 13 9 9 10 10 15 15 14
18 18 17 16 15 15 15 15 15 14 12 11 10 10 10 11 10 9 7 5 4 4 3 2 2 3 4 3 4 5 7 7 5 4 4 5 6 10 9 8 12 10 17 17 17
19 19 19 18 16 15 15 16 16 15 13 12 11 10 10 10 11 11 9 7 4 4 4 1 1 1 1 1 2 3 4 6 5 5 5 4 8 9 14 10 13 12 14 17 19
21 20 21 20 19 18 17 16 16 16 15 14 13 12 11 12 12 10 8 7 7 6 6 5 3 5 4 3 5 7 6 8 8 10 6 5 7 9 14 16 10 12 13 16 19
23 23 22 22 22 21 20 19 17 17 17 16 14 12 12 14 13 12 11 10 10 10 8 7 7 8 6 7 8 9 10 11 11 9 7 0 6 8 14 12 10 12 13 16 19
26 26 25 23 20 22 23 21 20 20 20 20 19 17 16 15 14 14 15 13 12 13 11 10 11 10 10 8 10 10 12 13 14 10 9 4 7 11 10 8 11 10 13 17 18
24 24 25 27 27 22 22 23 22 21 21 21 21 21 21 19 17 17 17 16 15 14 11 11 12 13 14 12 12 12 14 14 12 10 8 5 5 10 9 13 16 10 13 18 17
26 25 27 26 26 26 24 23 23 23 23 22 22 21 22 19 19 19 18 18 17 16 13 10 11 13 15 15 17 16 12 15 16 11 10 9 9 10 14 14 12 13 15 18 17
31 29 27 28 29 27 26 27 26 24 25 25 23 24 23 21 20 20 19 18 18 17 16 14 13 13 15 19 18 17 16 16 17 13 14 13 14 11 12 14 14 14 16 18 17
33 32 31 30 29 28 29 29 28 28 28 29 27 26 23 24 24 22 22 21 20 20 19 18 17 15 20 21 20 17 16 16 18 15 14 16 17 13 15 17 18 16 15 16 16
32 32 32 32 31 30 29 30 29 27 26 29 31 31 30 27 26 26 25 24 25 24 23 21 19 21 23 20 18 18 17 15 18 17 17 19 18 19 17 19 21 15 14 18 17
34 33 33 33 32 31 32 32 32 30 28 30 29 32 32 31 30 28 28 27 26 25 23 22 20 21 20 19 18 18 16 18 20 19 20 21 19 20 18 20 21 17 15 17 17
36 36 35 34 34 32 29 29 29 24 27 31 31 32 33 31 31 29 29 29 28 24 23 21 20 20 21 21 20 20 22 22 22 21 12 24 10 22 20 20 16 15 17 14 14
39 39 38 37 34 32 29 28 27 23 25 28 31 33 32 31 28 28 29 29 28 27 24 24 24 22 22 23 24 25 26 24 22 22 24 19 15 14 18 18 17 16 15 13 8
33 34 36 36 35 33 32 31 29 29 31 27 27 30 34 32 31 28 28 28 28 27 25 27 23 23 23 26 27 28 25 23 20 21 17 16 18 11 15 19 16 15 14 16 10
26 28 30 32 32 33 32 32 32 33 31 32 29 28 31 34 35 33 31 30 29 29 28 30 28 28 28 28 29 27 23 18 14 13 11 20 20 12 21 19 16 12 11 17 14
28 27 28 29 29 28 29 31 34 31 32 32 30 28 30 30 34 34 35 34 34 33 34 31 29 28 26 23 24 21 17 14 12 13 15 21 15 14 16 16 13 7 14 17 9
32 29 29 28 27 28 29 30 27 28 30 31 32 32 31 31 31 31 31 31 32 32 30 28 27 28 26 24 22 20 23 15 18 18 17 13 14 13 9 8 6 10 14 12 11
39 35 32 31 28 28 28 27 25 26 27 29 32 33 34 33 32 32 30 30 31 31 29 30 28 28 24 20 20 21 17 18 17 14 15 14 17 7 8 5 5 10 12 13 13
44 43 38 37 34 31 27 28 25 27 28 29 30 30 32 33 35 32 32 31 30 30 28 25 24 22 21 18 17 19 20 19 17 19 14 13 11 10 5 4 5 7 10 12 14
47 47 44 41 40 35 32 30 30 31 28 28 29 30 30 29 31 32 31 33 27 26 24 23 22 24 20 19 17 20 19 20 19 18 14 18 13 16 11 6 9 9 14 14 15
51 51 48 45 44 41 38 35 36 35 33 31 29 29 30 28 28 29 33 32 27 25 24 24 23 21 19 22 19 22 25 26 22 24 17 13 14 16 14 12 15 18 19 17 19
53 52 54 51 48 45 44 39 37 36 35 34 34 32 29 27 28 28 29 30 29 27 24 26 26 24 15 19 17 18 23 24 26 18 16 14 15 18 13 17 17 17 16 17 17
52 54 53 53 53 50 46 45 39 38 37 35 34 35 33 31 27 28 29 28 27 27 26 29 28 28 27 27 24 23 18 23 23 18 18 17 13 17 15 13 14 17 19 20 20
50 51 52 53 54 51 49 47 45 42 37 36 35 37 37 33 31 29 31 31 31 30 28 28 27 30 29 26 24 29 28 29 26 21 23 18 16 14 15 17 19 20 22 24 20
47 51 51 51 50 50 52 50 47 47 40 39 37 38 37 38 36 33 30 32 32 31 32 31 30 28 27 28 27 30 34 35 35 32 24 19 19 15 16 20 22 23 25 24 18
Wind_Direction
218 216 216 216 217 219 218 222 227 227 223 225 227 229 231 234 233 236 258 289 344 351 354 9 27 35 38 50 58 28 28 15 9 332 325 330 329 320 310 309 311 339 352 358 0
219 220 217 217 217 218 220 220 221 225 225 224 226 228 223 226 229 222 239 268 318 339 351 19 18 32 41 44 54 60 50 23 24 4 321 314 323 306 294 310 306 341 3 2 357
221 222 221 221 221 221 220 224 222 221 224 222 218 214 210 212 211 209 223 252 280 318 336 34 56 31 57 58 73 66 65 54 22 350 336 309 307 279 283 302 335 351 357 3 356
226 225 227 225 222 225 225 226 224 222 220 217 216 206 195 199 208 209 225 246 265 299 304 326 186 264 1 43 344 352 2 21 7 319 295 264 247 273 275 292 330 336 357 358 352
232 231 232 232 230 225 229 227 226 222 219 219 219 218 210 210 219 223 229 244 259 272 284 291 258 235 255 264 297 315 316 335 347 354 340 278 242 249 272 275 325 327 349 353 350
238 239 239 237 235 232 230 231 230 230 221 221 219 219 227 229 229 231 239 245 252 260 261 270 271 241 241 260 284 298 303 313 314 344 352 350 265 293 273 284 299 320 345 347 348
238 240 240 243 243 240 232 230 232 233 229 226 225 231 232 235 233 236 240 240 246 258 262 264 257 248 233 263 276 296 310 305 304 326 343 1 339 294 290 283 311 332 347 345 344
247 246 245 242 243 248 242 232 231 233 232 232 232 230 234 235 237 239 242 247 244 256 257 258 258 251 241 248 280 288 298 302 311 310 304 348 282 274 287 307 304 321 344 337 338
252 252 249 247 242 246 247 242 237 234 235 237 239 238 236 238 240 243 243 247 249 249 248 255 259 254 246 244 265 275 288 301 306 320 299 291 283 312 317 296 294 311 329 326 329
255 253 252 250 247 244 245 246 245 243 239 238 240 242 239 247 247 247 246 245 246 247 252 260 256 254 247 242 252 263 286 296 299 315 301 294 303 325 310 276 289 311 322 324 322
253 253 252 253 251 249 251 253 253 249 244 241 238 241 244 243 245 246 247 248 248 248 250 254 258 253 247 253 260 272 282 286 290 302 303 289 291 304 303 291 296 300 316 324 326
249 250 251 254 255 255 252 251 252 248 248 246 245 243 244 246 245 246 245 247 249 250 252 258 259 250 260 264 266 269 277 279 282 295 305 295 282 284 286 286 293 294 308 316 317
246 248 250 253 255 257 255 254 253 251 246 254 248 242 243 238 241 243 246 248 252 255 256 257 257 259 259 264 266 267 265 268 271 297 302 290 290 288 290 288 285 283 298 304 311
248 248 250 250 253 253 252 251 251 252 246 245 252 240 237 242 243 244 245 248 252 255 256 257 259 259 261 264 263 264 266 272 285 299 277 295 269 287 295 291 280 282 300 296 315
247 250 252 251 249 249 248 244 245 245 248 243 245 239 239 237 241 242 246 247 250 252 257 259 258 263 268 266 265 264 270 280 287 296 294 284 282 288 298 288 287 295 305 288 348
249 249 250 251 250 246 245 246 246 244 245 246 243 241 237 242 243 240 242 244 249 254 259 265 268 266 266 267 267 266 272 277 282 286 277 264 280 291 283 298 288 295 301 301 319
246 247 248 248 247 247 246 245 244 244 247 247 242 241 238 240 242 242 244 247 251 254 257 260 263 267 271 268 264 264 263 270 264 261 257 258 286 278 291 291 298 296 295 308 324
250 245 245 247 246 244 244 243 243 243 243 244 241 237 238 237 239 241 244 246 248 252 256 261 268 265 268 269 263 248 242 220 252 247 263 276 284 291 295 286 285 283 310 315 304
252 249 245 247 242 242 242 242 242 240 238 237 236 234 235 237 238 242 246 245 244 246 248 255 257 264 266 264 258 251 239 232 235 238 253 270 291 295 300 302 292 294 314 321 287
253 251 247 247 243 238 239 241 239 236 234 233 233 233 233 234 238 237 239 239 240 243 245 250 254 261 258 258 248 242 231 229 242 240 262 279 292 262 314 289 300 316 326 309 309
251 250 248 244 244 243 242 240 236 232 230 231 234 235 235 233 235 237 239 239 234 238 244 249 249 253 251 249 247 240 238 230 217 228 239 271 292 280 261 253 304 323 315 314 312
249 249 247 245 243 241 240 238 234 234 231 231 233 235 236 235 235 236 237 237 236 240 242 240 237 231 241 243 237 237 233 238 237 270 261 232 251 269 247 235 265 276 310 324 323
246 247 245 243 242 241 239 237 236 235 233 234 232 235 237 235 235 233 235 236 234 231 232 227 227 220 235 247 244 234 235 239 234 230 252 252 265 278 248 258 271 284 291 325 327
241 241 242 242 243 241 240 239 238 237 236 233 235 236 239 237 232 233 235 234 232 228 222 222 226 220 211 233 239 243 233 237 237 246 248 239 258 260 259 280 267 273 282 312 314
239 238 238 238 238 239 240 240 239 238 236 232 232 236 236 234 232 230 231 235 231 233 227 225 225 227 219 220 226 227 235 237 242 249 243 256 270 270 264 278 281 283 297 309 303
236 235 234 236 236 236 237 238 240 239 236 235 229 231 234 233 231 229 230 229 227 226 230 233 229 227 231 233 232 232 236 229 243 242 246 254 250 265 279 289 296 294 299 297 292
231 230 230 231 234 234 235 236 235 239 238 236 232 231 231 230 233 232 231 235 235 227 229 232 236 229 229 243 235 237 236 237 242 248 255 257 247 262 281 287 295 295 299 296 274